Portada
METAR-TAF:

METAR-TAF

Aeroports :

Flying Cloud Airport

Minneapolis-Eden Prairie, Minnesota, Estats Units d'Amèrica

latitud: 44-49-56N, longitud: 093-28-13W, altitud: 287 m

Observació

L'informe es va fer fa 44 minuts, a les 01:53 UTC
Vent 10 kt del Est/Nord-Est
Temperatura -4°C
Humitat 80%
Pressió 1011 hPa
Visibilitat: 11.3 km
Cel clar

METAR: KFCM 120153Z 07010KT 7SM CLR M04/M07 A2984 RMK AO2 SLP122 T10391072

Hora: 20:37 (02:37 UTC)


TAF: manca

Observacions i pronòstics meteorològics de més de 4000 aeroports (METAR i TAF).

Les estacions disponibles són els punts grocs i vermells al mapa.

Posi el ratolí al punt desitjat per veure el nom de l'estació.

Feu clic per veure les observacions i els pronòstics meteorològics.

Per canviar el mapa: feu clic els botons verds amb una creu de color negre per apropar; al botó verd amb un guió per allunyar la imatge; o en les fletxes verdes per a mapes adjacents.


METAR-TAF: